COSMOS 1275 DEB

Satellite information

Favourite Embed

Satellite Type and Status

DEBRISIN ORBIT

Key statistics

Satellite COSMOS 1275 DEB at a glance.

Uptime

16211

Days in orbit

Revolutions

≈ 14.2

Per day

Orbit

LEO

Low Earth Orbit

Inclination

83.1

Latest

Satellite identification and parameters

Extended collection of information and parameters for COSMOS 1275 DEB.

Object identification

Identified? True

Debris? True

Object name: COSMOS 1275 DEB

International designator: 1981-053MN

Object number (NORAD): 27733

Object ID (CCSDS): 27733

Country: COMMONWEALTH OF INDEPENDENT STATES (CIS)

Current information (Y/N): Y

RCS size: SMALL

Orbital parameters

Period: 101.378 minutes

Inclination: 83.1138 deg

SMA: 7202.054 km

Apoapsis: 843.185 km

Periapsis: 804.653 km

RAAN: 9.4187 deg

Eccentricy: 0.0026751

Argument of periapsis: 5.9214 deg

Mean anomaly: 354.2279 deg

Mean motion: 14.20424724 rev/day

Mean motion (dot): 0.00005292 rev/day2

B* drag term: 0.0024524 1/REarth

Two-line elements (TLE)

Creation date: Oct. 22, 2025, 12:16 a.m.

Reference frame: TEME

Reference center: EARTH

Epoch: Oct. 21, 2025, 12:42 p.m. UTC

TLE line 0: 0 COSMOS 1275 DEB

TLE line 1: 1 27733U 81053MN 25294.52922979 .00005292 00000-0 24524-2 0 9993

TLE line 2: 2 27733 83.1138 9.4187 0026751 5.9214 354.2279 14.20424724333471

Live tracking on map

Real-time ground track for satellite COSMOS 1275 DEB.

In-orbit conjunctions

A list of the most updated potential collisions computed for object COSMOS 1275 DEB.

Target Orbit TCA Probability of collision Miss distance Type
CZ-6A DEB LEO 2025-05-10 09:37:30 0.0001669018 200.0 (m) DEBRIS
DELTA 1 DEB SSO 2025-01-27 09:05:44 0.000126392 120.0 (m) DEBRIS
FENGYUN 1C DEB SSO 2025-01-05 11:55:21 0.0001352377 115.0 (m) DEBRIS

Associated space launch

Navigation satellite providing location information for the Tsiklon-B navigation system

COSMOS 1275 DEB was lifted into orbit during the mission ‘Kosmos-3M | Parus 27’, on board a Kosmos-3M space rocket.

The launch took place on June 4, 1981, 3:41 p.m. from 132/2.

For more information about the launch, click the button.

Launch to space Kosmos-3M | Parus 27
Kosmos-3M | Parus 27

Agency: N/A

Status: Launch Successful

Launch date: June 4, 1981, 3:41 p.m. UTC

Rocket: Kosmos-3M

Launch pad: 132/2

Location: Plesetsk Cosmodrome, Russian Federation

...

Latest news about this satellite

There are no fresh news available about this satellite. Check back as we update our databases every day.


Newsletter sign-up

Weekly statistics, charts and insights to help you stay on top of the space industry.